NOAA 16 DEB, 42396

Orbit data source: Space-Track

NOAA 16 DEB, 42396 is space debris in SSO originally from a launch on Thu, 21 Sep 2000 UTC launched from the Air Force Western Test Range (AFWTR). Debris objects in space refer to the collection of defunct objects orbiting the Earth. Examples of debris include non-operational satellites, rocket bodies, and fragments generated from explosions, collisions, or faulty payload assembly.

Loading next visibility...
Identifier
42396, 2000-055SQ
Orbit
SSO
Country
Flag of USUS
Related business
Manufacturer
Unknown
Mission
Spacecraft
Bus & Motor
Unknown
Mass
Unknown
Launch date (UTC)
2000-09-21 (25 years ago)
Launch vehicle
Unknown
Launch site
Air Force Western Test Range (AFWTR)
Object type
Payload
Rocket body
Debris
Shape & HBR
Unknown shape, 0.1 m
Radar Cross Section
Small (<0.1 m²)

Expand to show TLE details & history
Last TLE update: 1 day ago

TLE from 1 day ago
0 NOAA 16 DEB
1 42396U 00055SQ  25348.84689921  .00007755  00000-0  17844-2 0  9993
2 42396  98.7949 127.6295 0027987 216.4282 143.5010 14.55447540510450
Epoch: 2025-12-14T20:19Z
TLE epoch observation values (Epoch: 2025-12-14T20:19:32.091Z)
Latitude
-0.00003°
Longitude
98.99184°
Altitude
726.837 km
Speed
7.483 km/s
True Right ascension
08h 30m 31s
True Declination
0° 00' 00"
Sunlit
Object was in full shadow at epoch
Visualization orbit readout
Latitude
Unknown
Longitude
Unknown
Altitude
Unknown
Speed
Unknown
Apparent Right ascension
Unknown
Apparent Declination
Unknown
Sunlit
N/A
Visualization observer readout
Local Sidereal Time
22:30:51
Azimuth
Unknown
Elevation
Unknown
Doppler factor
Unknown
Orbital elements
Apogee altitude
724.851 km
Perigee altitude
685.204 km
Semi-major axis
7,083.164 km
Eccentricity
0.0028
Inclination
98.7949°
RAAN
127.6295°
Arg. of periapsis
216.4282°
True anomaly
143.69122°
Mean anomaly
143.501°
Eccentric anomaly
143.59617°
Mean motion
3.64085 °/min
Orbital period
98.88 mins
BSTAR
0.0017844
Loading maneuver chart data...
Computing Atmospheric mass density...
Loading historical data...
Loading historical data...
Loading historical data...
Loading historical data...
Loading historical data...
Loading historical data...
Loading historical data...

Documentation

Showing up to 5 results
|